Year,Month,Day,Hour,Minute,Value (Times are PST for temperature in C)
2009,06,27,00,00,10.90
2009,06,27,00,01,10.80
2009,06,27,00,02,10.80
2009,06,27,00,03,10.80
2009,06,27,00,04,10.80
2009,06,27,00,05,10.80
2009,06,27,00,06,10.80
2009,06,27,00,07,10.80
2009,06,27,00,08,10.70
2009,06,27,00,09,10.70
2009,06,27,00,10,10.70
2009,06,27,00,11,10.70
2009,06,27,00,12,10.70
2009,06,27,00,13,10.70
2009,06,27,00,14,10.70
2009,06,27,00,15,10.70
2009,06,27,00,16,10.70
2009,06,27,00,17,10.70
2009,06,27,00,18,10.70
2009,06,27,00,19,10.70
2009,06,27,00,20,10.60
2009,06,27,00,21,10.60
2009,06,27,00,22,10.60
2009,06,27,00,23,10.60
2009,06,27,00,24,10.60
2009,06,27,00,25,10.60
2009,06,27,00,26,10.60
2009,06,27,00,27,10.60
2009,06,27,00,28,10.60
2009,06,27,00,29,10.60
2009,06,27,00,30,10.40
2009,06,27,00,31,10.40
2009,06,27,00,32,10.40
2009,06,27,00,33,10.40
2009,06,27,00,34,10.40
2009,06,27,00,35,10.40
2009,06,27,00,36,10.30
2009,06,27,00,37,10.30
2009,06,27,00,38,10.30
2009,06,27,00,39,10.30
2009,06,27,00,40,10.20
2009,06,27,00,41,10.20
2009,06,27,00,42,10.20
2009,06,27,00,43,10.10
2009,06,27,00,44,10.10
2009,06,27,00,45,10.10
2009,06,27,00,46,10.10
2009,06,27,00,47,10.10
2009,06,27,00,48,10.10
2009,06,27,00,49,9.90
2009,06,27,00,50,9.90
2009,06,27,00,51,9.90
2009,06,27,00,52,9.90
2009,06,27,00,53,9.90
2009,06,27,00,54,9.90
2009,06,27,00,55,9.90
2009,06,27,00,56,9.80
2009,06,27,00,57,9.80
2009,06,27,00,58,9.80
2009,06,27,00,59,9.80
2009,06,27,01,00,9.80
2009,06,27,01,01,9.80
2009,06,27,01,02,9.90
2009,06,27,01,03,9.90
2009,06,27,01,04,9.90
2009,06,27,01,05,9.90
2009,06,27,01,06,9.90
2009,06,27,01,07,9.90
2009,06,27,01,08,9.90
2009,06,27,01,09,9.90
2009,06,27,01,10,9.90
2009,06,27,01,11,9.90
2009,06,27,01,12,9.80
2009,06,27,01,13,9.80
2009,06,27,01,14,9.80
2009,06,27,01,15,9.80
2009,06,27,01,16,9.70
2009,06,27,01,17,9.70
2009,06,27,01,18,9.70
2009,06,27,01,19,9.70
2009,06,27,01,20,9.70
2009,06,27,01,21,9.80
2009,06,27,01,22,9.80
2009,06,27,01,23,9.80
2009,06,27,01,24,9.80
2009,06,27,01,25,9.80
2009,06,27,01,26,9.80
2009,06,27,01,27,9.80
2009,06,27,01,28,9.80
2009,06,27,01,29,9.80
2009,06,27,01,30,9.80
2009,06,27,01,31,9.90
2009,06,27,01,32,9.90
2009,06,27,01,33,9.90
2009,06,27,01,34,9.90
2009,06,27,01,35,9.90
2009,06,27,01,36,9.90
2009,06,27,01,37,9.90
2009,06,27,01,38,9.90
2009,06,27,01,39,9.90
2009,06,27,01,40,9.90
2009,06,27,01,41,9.80
2009,06,27,01,42,9.80
2009,06,27,01,43,9.80
2009,06,27,01,44,9.80
2009,06,27,01,45,9.80
2009,06,27,01,46,9.70
2009,06,27,01,47,9.70
2009,06,27,01,48,9.70
2009,06,27,01,49,9.70
2009,06,27,01,50,9.70
2009,06,27,01,51,9.70
2009,06,27,01,52,9.70
2009,06,27,01,53,9.70
2009,06,27,01,54,9.70
2009,06,27,01,55,9.70
2009,06,27,01,56,9.70
2009,06,27,01,57,9.70
2009,06,27,01,58,9.70
2009,06,27,01,59,9.70
2009,06,27,02,00,9.70
2009,06,27,02,01,9.70
2009,06,27,02,02,9.70
2009,06,27,02,03,9.70
2009,06,27,02,04,9.70
2009,06,27,02,05,9.70
2009,06,27,02,06,9.70
2009,06,27,02,07,9.70
2009,06,27,02,08,9.70
2009,06,27,02,09,9.70
2009,06,27,02,10,9.70
2009,06,27,02,11,9.70
2009,06,27,02,12,9.70
2009,06,27,02,13,9.70
2009,06,27,02,14,9.70
2009,06,27,02,15,9.70
2009,06,27,02,16,9.70
2009,06,27,02,17,9.70
2009,06,27,02,18,9.70
2009,06,27,02,19,9.70
2009,06,27,02,20,9.70
2009,06,27,02,21,9.70
2009,06,27,02,22,9.70
2009,06,27,02,23,9.60
2009,06,27,02,24,9.60
2009,06,27,02,25,9.60
2009,06,27,02,26,9.60
2009,06,27,02,27,9.60
2009,06,27,02,28,9.50
2009,06,27,02,29,9.50
2009,06,27,02,30,9.50
2009,06,27,02,31,9.50
2009,06,27,02,32,9.50
2009,06,27,02,33,9.50
2009,06,27,02,34,9.40
2009,06,27,02,35,9.40
2009,06,27,02,36,9.40
2009,06,27,02,37,9.40
2009,06,27,02,38,9.40
2009,06,27,02,39,9.40
2009,06,27,02,40,9.30
2009,06,27,02,41,9.30
2009,06,27,02,42,9.30
2009,06,27,02,43,9.30
2009,06,27,02,44,9.30
2009,06,27,02,45,9.30
2009,06,27,02,46,9.30
2009,06,27,02,47,9.20
2009,06,27,02,48,9.20
2009,06,27,02,49,9.20
2009,06,27,02,50,9.20
2009,06,27,02,51,9.20
2009,06,27,02,52,9.20
2009,06,27,02,53,9.20
2009,06,27,02,54,9.20
2009,06,27,02,55,9.20
2009,06,27,02,56,9.20
2009,06,27,02,57,9.20
2009,06,27,02,58,9.20
2009,06,27,02,59,9.20
2009,06,27,03,00,9.20
2009,06,27,03,01,9.20
2009,06,27,03,02,9.20
2009,06,27,03,03,9.20
2009,06,27,03,04,9.20
2009,06,27,03,05,9.20
2009,06,27,03,06,9.20
2009,06,27,03,07,9.20
2009,06,27,03,08,9.20
2009,06,27,03,09,9.10
2009,06,27,03,10,9.10
2009,06,27,03,11,9.10
2009,06,27,03,12,9.10
2009,06,27,03,13,9.10
2009,06,27,03,14,9.10
2009,06,27,03,15,9.10
2009,06,27,03,16,9.10
2009,06,27,03,17,9.10
2009,06,27,03,18,9.10
2009,06,27,03,19,9.10
2009,06,27,03,20,9.10
2009,06,27,03,21,9.10
2009,06,27,03,22,9.10
2009,06,27,03,23,9.10
2009,06,27,03,24,9.10
2009,06,27,03,25,9.10
2009,06,27,03,26,9.10
2009,06,27,03,27,9.10
2009,06,27,03,28,9.10
2009,06,27,03,29,9.10
2009,06,27,03,30,9.00
2009,06,27,03,31,9.00
2009,06,27,03,32,9.00
2009,06,27,03,33,9.00
2009,06,27,03,34,8.90
2009,06,27,03,35,8.90
2009,06,27,03,36,8.90
2009,06,27,03,37,8.90
2009,06,27,03,38,8.80
2009,06,27,03,39,8.80
2009,06,27,03,40,8.70
2009,06,27,03,41,8.70
2009,06,27,03,42,8.70
2009,06,27,03,43,8.60
2009,06,27,03,44,8.50
2009,06,27,03,45,8.50
2009,06,27,03,46,8.50
2009,06,27,03,47,8.40
2009,06,27,03,48,8.40
2009,06,27,03,49,8.40
2009,06,27,03,50,8.30
2009,06,27,03,51,8.30
2009,06,27,03,52,8.30
2009,06,27,03,53,8.20
2009,06,27,03,54,8.20
2009,06,27,03,55,8.20
2009,06,27,03,56,8.20
2009,06,27,03,57,8.20
2009,06,27,03,58,8.20
2009,06,27,03,59,8.20
2009,06,27,04,00,8.10
2009,06,27,04,01,8.10
2009,06,27,04,02,8.00
2009,06,27,04,03,8.00
2009,06,27,04,04,7.90
2009,06,27,04,05,7.90
2009,06,27,04,06,7.90
2009,06,27,04,07,7.80
2009,06,27,04,08,7.80
2009,06,27,04,09,7.80
2009,06,27,04,10,7.80
2009,06,27,04,11,7.80
2009,06,27,04,12,7.80
2009,06,27,04,13,7.70
2009,06,27,04,14,7.70
2009,06,27,04,15,7.70
2009,06,27,04,16,7.80
2009,06,27,04,17,7.80
2009,06,27,04,18,7.80
2009,06,27,04,19,7.80
2009,06,27,04,20,7.80
2009,06,27,04,21,7.80
2009,06,27,04,22,7.80
2009,06,27,04,23,7.80
2009,06,27,04,24,7.80
2009,06,27,04,25,7.80
2009,06,27,04,26,7.80
2009,06,27,04,27,7.80
2009,06,27,04,28,7.80
2009,06,27,04,29,7.80
2009,06,27,04,30,7.80
2009,06,27,04,31,7.80
2009,06,27,04,32,7.80
2009,06,27,04,33,7.80
2009,06,27,04,34,7.80
2009,06,27,04,35,7.80
2009,06,27,04,36,7.80
2009,06,27,04,37,7.80
2009,06,27,04,38,7.80
2009,06,27,04,39,7.80
2009,06,27,04,40,7.80
2009,06,27,04,41,7.80
2009,06,27,04,42,7.70
2009,06,27,04,43,7.70
2009,06,27,04,44,7.70
2009,06,27,04,45,7.70
2009,06,27,04,46,7.70
2009,06,27,04,47,7.60
2009,06,27,04,48,7.60
2009,06,27,04,49,7.60
2009,06,27,04,50,7.60
2009,06,27,04,51,7.60
2009,06,27,04,52,7.50
2009,06,27,04,53,7.50
2009,06,27,04,54,7.50
2009,06,27,04,55,7.50
2009,06,27,04,56,7.40
2009,06,27,04,57,7.40
2009,06,27,04,58,7.40
2009,06,27,04,59,7.40
2009,06,27,05,00,7.40
2009,06,27,05,01,7.40
2009,06,27,05,02,7.30
2009,06,27,05,03,7.30
2009,06,27,05,04,7.30
2009,06,27,05,05,7.30
2009,06,27,05,06,7.30
2009,06,27,05,07,7.30
2009,06,27,05,08,7.30
2009,06,27,05,09,7.30
2009,06,27,05,10,7.30
2009,06,27,05,11,7.30
2009,06,27,05,12,7.30
2009,06,27,05,13,7.30
2009,06,27,05,14,7.20
2009,06,27,05,15,7.20
2009,06,27,05,16,7.20
2009,06,27,05,17,7.20
2009,06,27,05,18,7.20
2009,06,27,05,19,7.20
2009,06,27,05,20,7.20
2009,06,27,05,21,7.20
2009,06,27,05,22,7.20
2009,06,27,05,23,7.30
2009,06,27,05,24,7.30
2009,06,27,05,25,7.30
2009,06,27,05,26,7.30
2009,06,27,05,27,7.30
2009,06,27,05,28,7.30
2009,06,27,05,29,7.30
2009,06,27,05,30,7.30
2009,06,27,05,31,7.20
2009,06,27,05,32,7.20
2009,06,27,05,33,7.20
2009,06,27,05,34,7.20
2009,06,27,05,35,7.20
2009,06,27,05,36,7.20
2009,06,27,05,37,7.20
2009,06,27,05,38,7.20
2009,06,27,05,39,7.20
2009,06,27,05,40,7.10
2009,06,27,05,41,7.10
2009,06,27,05,42,7.10
2009,06,27,05,43,7.10
2009,06,27,05,44,7.10
2009,06,27,05,45,7.10
2009,06,27,05,46,7.10
2009,06,27,05,47,7.10
2009,06,27,05,48,7.10
2009,06,27,05,49,7.10
2009,06,27,05,50,7.00
2009,06,27,05,51,7.00
2009,06,27,05,52,7.00
2009,06,27,05,53,7.00
2009,06,27,05,54,7.00
2009,06,27,05,55,7.00
2009,06,27,05,56,6.90
2009,06,27,05,57,6.90
2009,06,27,05,58,6.90
2009,06,27,05,59,6.90
2009,06,27,06,00,6.90
2009,06,27,06,01,6.90
2009,06,27,06,02,6.90
2009,06,27,06,03,6.90
2009,06,27,06,04,6.90
2009,06,27,06,05,6.90
2009,06,27,06,06,6.90
2009,06,27,06,07,7.00
2009,06,27,06,08,7.00
2009,06,27,06,09,7.00
2009,06,27,06,10,7.00
2009,06,27,06,11,7.10
2009,06,27,06,12,7.10
2009,06,27,06,13,7.20
2009,06,27,06,14,7.20
2009,06,27,06,15,7.30
2009,06,27,06,16,7.30
2009,06,27,06,17,7.40
2009,06,27,06,18,7.40
2009,06,27,06,19,7.50
2009,06,27,06,20,7.60
2009,06,27,06,21,7.60
2009,06,27,06,22,7.70
2009,06,27,06,23,7.80
2009,06,27,06,24,7.80
2009,06,27,06,25,7.90
2009,06,27,06,26,8.00
2009,06,27,06,27,8.00
2009,06,27,06,28,8.10
2009,06,27,06,29,8.10
2009,06,27,06,30,8.10
2009,06,27,06,31,8.20
2009,06,27,06,32,8.20
2009,06,27,06,33,8.20
2009,06,27,06,34,8.30
2009,06,27,06,35,8.30
2009,06,27,06,36,8.30
2009,06,27,06,37,8.30
2009,06,27,06,38,8.40
2009,06,27,06,39,8.40
2009,06,27,06,40,8.40
2009,06,27,06,41,8.40
2009,06,27,06,42,8.40
2009,06,27,06,43,8.40
2009,06,27,06,44,8.50
2009,06,27,06,45,8.50
2009,06,27,06,46,8.50
2009,06,27,06,47,8.60
2009,06,27,06,48,8.60
2009,06,27,06,49,8.60
2009,06,27,06,50,8.60
2009,06,27,06,51,8.70
2009,06,27,06,52,8.70
2009,06,27,06,53,8.70
2009,06,27,06,54,8.70
2009,06,27,06,55,8.70
2009,06,27,06,56,8.70
2009,06,27,06,57,8.70
2009,06,27,06,58,8.80
2009,06,27,06,59,8.80
2009,06,27,07,00,8.80
2009,06,27,07,01,8.90
2009,06,27,07,02,8.90
2009,06,27,07,03,9.00
2009,06,27,07,04,9.00
2009,06,27,07,05,9.00
2009,06,27,07,06,9.10
2009,06,27,07,07,9.20
2009,06,27,07,08,9.20
2009,06,27,07,09,9.20
2009,06,27,07,10,9.30
2009,06,27,07,11,9.40
2009,06,27,07,12,9.40
2009,06,27,07,13,9.50
2009,06,27,07,14,9.60
2009,06,27,07,15,9.70
2009,06,27,07,16,9.70
2009,06,27,07,17,9.80
2009,06,27,07,18,9.90
2009,06,27,07,19,10.00
2009,06,27,07,20,10.10
2009,06,27,07,21,10.20
2009,06,27,07,22,10.20
2009,06,27,07,23,10.30
2009,06,27,07,24,10.40
2009,06,27,07,25,10.40
2009,06,27,07,26,10.60
2009,06,27,07,27,10.60
2009,06,27,07,28,10.60
2009,06,27,07,29,10.70
2009,06,27,07,30,10.70
2009,06,27,07,31,10.80
2009,06,27,07,32,10.90
2009,06,27,07,33,10.90
2009,06,27,07,34,11.00
2009,06,27,07,35,11.10
2009,06,27,07,36,11.10
2009,06,27,07,37,11.10
2009,06,27,07,38,11.20
2009,06,27,07,39,11.30
2009,06,27,07,40,11.30
2009,06,27,07,41,11.40
2009,06,27,07,42,11.40
2009,06,27,07,43,11.50
2009,06,27,07,44,11.60
2009,06,27,07,45,11.60
2009,06,27,07,46,11.60
2009,06,27,07,47,11.60
2009,06,27,07,48,11.60
2009,06,27,07,49,11.60
2009,06,27,07,50,11.60
2009,06,27,07,51,11.70
2009,06,27,07,52,11.80
2009,06,27,07,53,11.80
2009,06,27,07,54,11.90
2009,06,27,07,55,12.00
2009,06,27,07,56,12.10
2009,06,27,07,57,12.10
2009,06,27,07,58,12.20
2009,06,27,07,59,12.30
2009,06,27,08,00,12.30
2009,06,27,08,01,12.40
2009,06,27,08,02,12.40
2009,06,27,08,03,12.50
2009,06,27,08,04,12.60
2009,06,27,08,05,12.60
2009,06,27,08,06,12.70
2009,06,27,08,07,12.80
2009,06,27,08,08,12.80
2009,06,27,08,09,12.90
2009,06,27,08,10,12.90
2009,06,27,08,11,13.00
2009,06,27,08,12,13.00
2009,06,27,08,13,13.10
2009,06,27,08,14,13.10
2009,06,27,08,15,13.20
2009,06,27,08,16,13.20
2009,06,27,08,17,13.20
2009,06,27,08,18,13.30
2009,06,27,08,19,13.30
2009,06,27,08,20,13.30
2009,06,27,08,21,13.30
2009,06,27,08,22,13.40
2009,06,27,08,23,13.50
2009,06,27,08,24,13.60
2009,06,27,08,25,13.70
2009,06,27,08,26,13.70
2009,06,27,08,27,13.70
2009,06,27,08,28,13.70
2009,06,27,08,29,13.70
2009,06,27,08,30,13.80
2009,06,27,08,31,13.80
2009,06,27,08,32,13.90
2009,06,27,08,33,13.90
2009,06,27,08,34,14.00
2009,06,27,08,35,14.10
2009,06,27,08,36,14.10
2009,06,27,08,37,14.00
2009,06,27,08,38,14.00
2009,06,27,08,39,14.00
2009,06,27,08,40,14.00
2009,06,27,08,41,14.00
2009,06,27,08,42,14.00
2009,06,27,08,43,14.00
2009,06,27,08,44,13.90
2009,06,27,08,45,13.90
2009,06,27,08,46,13.80
2009,06,27,08,47,13.90
2009,06,27,08,48,13.90
2009,06,27,08,49,13.90
2009,06,27,08,50,13.90
2009,06,27,08,51,14.00
2009,06,27,08,52,14.10
2009,06,27,08,53,14.20
2009,06,27,08,54,14.20
2009,06,27,08,55,14.20
2009,06,27,08,56,14.20
2009,06,27,08,57,14.20
2009,06,27,08,58,14.20
2009,06,27,08,59,14.30
2009,06,27,09,00,14.40
2009,06,27,09,01,14.40
2009,06,27,09,02,14.50
2009,06,27,09,03,14.50
2009,06,27,09,04,14.50
2009,06,27,09,05,14.50
2009,06,27,09,06,14.50
2009,06,27,09,07,14.60
2009,06,27,09,08,14.70
2009,06,27,09,09,14.80
2009,06,27,09,10,14.80
2009,06,27,09,11,14.80
2009,06,27,09,12,14.80
2009,06,27,09,13,14.80
2009,06,27,09,14,14.80
2009,06,27,09,15,14.80
2009,06,27,09,16,14.80
2009,06,27,09,17,14.80
2009,06,27,09,18,14.80
2009,06,27,09,19,14.80
2009,06,27,09,20,14.80
2009,06,27,09,21,14.90
2009,06,27,09,22,15.00
2009,06,27,09,23,15.00
2009,06,27,09,24,15.10
2009,06,27,09,25,15.10
2009,06,27,09,26,15.10
2009,06,27,09,27,15.10
2009,06,27,09,28,15.10
2009,06,27,09,29,15.20
2009,06,27,09,30,15.20
2009,06,27,09,31,15.30
2009,06,27,09,32,15.30
2009,06,27,09,33,15.30
2009,06,27,09,34,15.30
2009,06,27,09,35,15.40
2009,06,27,09,36,15.50
2009,06,27,09,37,15.50
2009,06,27,09,38,15.50
2009,06,27,09,39,15.60
2009,06,27,09,40,15.70
2009,06,27,09,41,15.90
2009,06,27,09,42,16.10
2009,06,27,09,43,16.10
2009,06,27,09,44,16.10
2009,06,27,09,45,16.10
2009,06,27,09,46,16.10
2009,06,27,09,47,16.10
2009,06,27,09,48,16.10
2009,06,27,09,49,16.10
2009,06,27,09,50,16.10
2009,06,27,09,51,16.10
2009,06,27,09,52,16.10
2009,06,27,09,53,16.10
2009,06,27,09,54,16.20
2009,06,27,09,55,16.30
2009,06,27,09,56,16.40
2009,06,27,09,57,16.40
2009,06,27,09,58,16.40
2009,06,27,09,59,16.50
2009,06,27,10,00,16.60
2009,06,27,10,01,16.60
2009,06,27,10,02,16.60
2009,06,27,10,03,16.70
2009,06,27,10,04,16.70
2009,06,27,10,05,16.80
2009,06,27,10,06,16.90
2009,06,27,10,07,16.90
2009,06,27,10,08,17.00
2009,06,27,10,09,16.90
2009,06,27,10,10,16.80
2009,06,27,10,11,16.70
2009,06,27,10,12,16.60
2009,06,27,10,13,16.40
2009,06,27,10,14,16.30
2009,06,27,10,15,16.20
2009,06,27,10,16,16.20
2009,06,27,10,17,16.20
2009,06,27,10,18,16.30
2009,06,27,10,19,16.30
2009,06,27,10,20,16.40
2009,06,27,10,21,16.60
2009,06,27,10,22,16.70
2009,06,27,10,23,16.70
2009,06,27,10,24,16.70
2009,06,27,10,25,16.70
2009,06,27,10,26,16.60
2009,06,27,10,27,16.40
2009,06,27,10,28,16.30
2009,06,27,10,29,16.10
2009,06,27,10,30,16.10
2009,06,27,10,31,15.90
2009,06,27,10,32,15.90
2009,06,27,10,33,15.90
2009,06,27,10,34,15.80
2009,06,27,10,35,15.90
2009,06,27,10,36,16.00
2009,06,27,10,37,16.10
2009,06,27,10,38,16.00
2009,06,27,10,39,16.00
2009,06,27,10,40,16.10
2009,06,27,10,41,16.30
2009,06,27,10,42,16.30
2009,06,27,10,43,16.30
2009,06,27,10,44,16.30
2009,06,27,10,45,16.40
2009,06,27,10,46,16.40
2009,06,27,10,47,16.50
2009,06,27,10,48,16.60
2009,06,27,10,49,16.60
2009,06,27,10,50,16.60
2009,06,27,10,51,16.70
2009,06,27,10,52,16.70
2009,06,27,10,53,16.70
2009,06,27,10,54,16.70
2009,06,27,10,55,16.80
2009,06,27,10,56,16.90
2009,06,27,10,57,17.00
2009,06,27,10,58,17.00
2009,06,27,10,59,17.00
2009,06,27,11,00,17.00
2009,06,27,11,01,17.10
2009,06,27,11,02,17.30
2009,06,27,11,03,17.30
2009,06,27,11,04,17.00
2009,06,27,11,05,16.70
2009,06,27,11,06,16.70
2009,06,27,11,07,16.70
2009,06,27,11,08,16.70
2009,06,27,11,09,16.60
2009,06,27,11,10,16.50
2009,06,27,11,11,16.30
2009,06,27,11,12,16.10
2009,06,27,11,13,16.00
2009,06,27,11,14,16.00
2009,06,27,11,15,16.10
2009,06,27,11,16,16.30
2009,06,27,11,17,16.30
2009,06,27,11,18,16.40
2009,06,27,11,19,16.40
2009,06,27,11,20,16.40
2009,06,27,11,21,16.40
2009,06,27,11,22,16.50
2009,06,27,11,23,16.70
2009,06,27,11,24,16.70
2009,06,27,11,25,16.80
2009,06,27,11,26,16.90
2009,06,27,11,27,17.00
2009,06,27,11,28,17.10
2009,06,27,11,29,17.20
2009,06,27,11,30,17.20
2009,06,27,11,31,17.10
2009,06,27,11,32,17.10
2009,06,27,11,33,17.20
2009,06,27,11,34,17.30
2009,06,27,11,35,17.30
2009,06,27,11,36,17.30
2009,06,27,11,37,17.30
2009,06,27,11,38,17.40
2009,06,27,11,39,17.40
2009,06,27,11,40,17.30
2009,06,27,11,41,17.30
2009,06,27,11,42,17.30
2009,06,27,11,43,17.30
2009,06,27,11,44,17.40
2009,06,27,11,45,17.60
2009,06,27,11,46,17.80
2009,06,27,11,47,17.90
2009,06,27,11,48,18.10
2009,06,27,11,49,18.20
2009,06,27,11,50,18.30
2009,06,27,11,51,18.40
2009,06,27,11,52,18.50
2009,06,27,11,53,18.50
2009,06,27,11,54,18.60
2009,06,27,11,55,18.60
2009,06,27,11,56,18.90
2009,06,27,11,57,19.10
2009,06,27,11,58,19.30
2009,06,27,11,59,19.50
2009,06,27,12,00,19.50
2009,06,27,12,01,19.60
2009,06,27,12,02,19.70
2009,06,27,12,03,19.70
2009,06,27,12,04,19.70
2009,06,27,12,05,19.70
2009,06,27,12,06,19.90
2009,06,27,12,07,20.00
2009,06,27,12,08,20.20
2009,06,27,12,09,20.40
2009,06,27,12,10,20.40
2009,06,27,12,11,20.50
2009,06,27,12,12,20.70
2009,06,27,12,13,20.80
2009,06,27,12,14,20.80
2009,06,27,12,15,20.80
2009,06,27,12,16,20.80
2009,06,27,12,17,20.80
2009,06,27,12,18,20.80
2009,06,27,12,19,20.90
2009,06,27,12,20,20.90
2009,06,27,12,21,21.00
2009,06,27,12,22,21.10
2009,06,27,12,23,21.10
2009,06,27,12,24,21.10
2009,06,27,12,25,21.10
2009,06,27,12,26,21.10
2009,06,27,12,27,21.10
2009,06,27,12,28,21.10
2009,06,27,12,29,21.20
2009,06,27,12,30,21.20
2009,06,27,12,31,21.00
2009,06,27,12,32,20.80
2009,06,27,12,33,20.70
2009,06,27,12,34,20.70
2009,06,27,12,35,20.80
2009,06,27,12,36,20.80
2009,06,27,12,37,20.80
2009,06,27,12,38,20.70
2009,06,27,12,39,20.70
2009,06,27,12,40,20.60
2009,06,27,12,41,20.70
2009,06,27,12,42,20.80
2009,06,27,12,43,20.90
2009,06,27,12,44,20.80
2009,06,27,12,45,20.70
2009,06,27,12,46,20.60
2009,06,27,12,47,20.60
2009,06,27,12,48,20.70
2009,06,27,12,49,20.70
2009,06,27,12,50,20.60
2009,06,27,12,51,20.50
2009,06,27,12,52,20.30
2009,06,27,12,53,20.30
2009,06,27,12,54,20.40
2009,06,27,12,55,20.40
2009,06,27,12,56,20.60
2009,06,27,12,57,20.80
2009,06,27,12,58,20.90
2009,06,27,12,59,21.00
2009,06,27,13,00,21.00
2009,06,27,13,01,21.00
2009,06,27,13,02,21.00
2009,06,27,13,03,21.00
2009,06,27,13,04,21.10
2009,06,27,13,05,21.00
2009,06,27,13,06,21.00
2009,06,27,13,07,20.90
2009,06,27,13,08,20.90
2009,06,27,13,09,20.80
2009,06,27,13,10,20.70
2009,06,27,13,11,20.80
2009,06,27,13,12,20.90
2009,06,27,13,13,20.80
2009,06,27,13,14,20.90
2009,06,27,13,15,21.00
2009,06,27,13,16,21.10
2009,06,27,13,17,21.10
2009,06,27,13,18,21.00
2009,06,27,13,19,21.00
2009,06,27,13,20,21.00
2009,06,27,13,21,21.00
2009,06,27,13,22,20.90
2009,06,27,13,23,20.80
2009,06,27,13,24,21.00
2009,06,27,13,25,21.10
2009,06,27,13,26,21.00
2009,06,27,13,27,21.00
2009,06,27,13,28,20.90
2009,06,27,13,29,20.80
2009,06,27,13,30,20.90
2009,06,27,13,31,20.90
2009,06,27,13,32,20.80
2009,06,27,13,33,20.60
2009,06,27,13,34,20.60
2009,06,27,13,35,20.60
2009,06,27,13,36,20.50
2009,06,27,13,37,20.60
2009,06,27,13,38,20.70
2009,06,27,13,39,20.80
2009,06,27,13,40,20.80
2009,06,27,13,41,20.80
2009,06,27,13,42,20.70
2009,06,27,13,43,20.60
2009,06,27,13,44,20.60
2009,06,27,13,45,20.70
2009,06,27,13,46,20.70
2009,06,27,13,47,20.80
2009,06,27,13,48,20.80
2009,06,27,13,49,20.80
2009,06,27,13,50,20.90
2009,06,27,13,51,20.90
2009,06,27,13,52,20.90
2009,06,27,13,53,21.10
2009,06,27,13,54,21.20
2009,06,27,13,55,21.20
2009,06,27,13,56,21.10
2009,06,27,13,57,21.20
2009,06,27,13,58,21.30
2009,06,27,13,59,21.40
2009,06,27,14,00,21.60
2009,06,27,14,01,21.60
2009,06,27,14,02,21.60
2009,06,27,14,03,21.50
2009,06,27,14,04,21.40
2009,06,27,14,05,21.30
2009,06,27,14,06,21.30
2009,06,27,14,07,21.30
2009,06,27,14,08,21.30
2009,06,27,14,09,21.40
2009,06,27,14,10,21.70
2009,06,27,14,11,21.70
2009,06,27,14,12,21.60
2009,06,27,14,13,21.60
2009,06,27,14,14,21.50
2009,06,27,14,15,21.50
2009,06,27,14,16,21.60
2009,06,27,14,17,21.70
2009,06,27,14,18,21.70
2009,06,27,14,19,21.70
2009,06,27,14,20,21.70
2009,06,27,14,21,21.70
2009,06,27,14,22,21.90
2009,06,27,14,23,22.00
2009,06,27,14,24,22.00
2009,06,27,14,25,22.10
2009,06,27,14,26,22.20
2009,06,27,14,27,22.20
2009,06,27,14,28,22.10
2009,06,27,14,29,22.10
2009,06,27,14,30,22.10
2009,06,27,14,31,22.10
2009,06,27,14,32,22.10
2009,06,27,14,33,22.10
2009,06,27,14,34,22.10
2009,06,27,14,35,21.90
2009,06,27,14,36,22.00
2009,06,27,14,37,22.00
2009,06,27,14,38,22.00
2009,06,27,14,39,22.10
2009,06,27,14,40,22.20
2009,06,27,14,41,22.20
2009,06,27,14,42,22.10
2009,06,27,14,43,22.10
2009,06,27,14,44,22.20
2009,06,27,14,45,22.30
2009,06,27,14,46,22.40
2009,06,27,14,47,22.50
2009,06,27,14,48,22.60
2009,06,27,14,49,22.70
2009,06,27,14,50,22.70
2009,06,27,14,51,22.70
2009,06,27,14,52,22.50
2009,06,27,14,53,22.30
2009,06,27,14,54,22.20
2009,06,27,14,55,22.10
2009,06,27,14,56,22.10
2009,06,27,14,57,22.10
2009,06,27,14,58,22.10
2009,06,27,14,59,22.10
2009,06,27,15,00,22.00
2009,06,27,15,01,22.10
2009,06,27,15,02,22.10
2009,06,27,15,03,22.00
2009,06,27,15,04,21.90
2009,06,27,15,05,21.80
2009,06,27,15,06,21.90
2009,06,27,15,07,22.00
2009,06,27,15,08,22.00
2009,06,27,15,09,21.90
2009,06,27,15,10,21.80
2009,06,27,15,11,21.70
2009,06,27,15,12,21.60
2009,06,27,15,13,21.40
2009,06,27,15,14,21.40
2009,06,27,15,15,21.40
2009,06,27,15,16,21.60
2009,06,27,15,17,21.60
2009,06,27,15,18,21.60
2009,06,27,15,19,21.60
2009,06,27,15,20,21.70
2009,06,27,15,21,21.70
2009,06,27,15,22,21.80
2009,06,27,15,23,21.80
2009,06,27,15,24,21.90
2009,06,27,15,25,22.00
2009,06,27,15,26,22.00
2009,06,27,15,27,21.80
2009,06,27,15,28,21.70
2009,06,27,15,29,21.80
2009,06,27,15,30,22.00
2009,06,27,15,31,22.20
2009,06,27,15,32,22.20
2009,06,27,15,33,22.10
2009,06,27,15,34,22.00
2009,06,27,15,35,21.90
2009,06,27,15,36,21.80
2009,06,27,15,37,21.80
2009,06,27,15,38,21.90
2009,06,27,15,39,21.90
2009,06,27,15,40,21.90
2009,06,27,15,41,22.00
2009,06,27,15,42,22.10
2009,06,27,15,43,22.30
2009,06,27,15,44,22.40
2009,06,27,15,45,22.50
2009,06,27,15,46,22.60
2009,06,27,15,47,22.60
2009,06,27,15,48,22.40
2009,06,27,15,49,22.40
2009,06,27,15,50,22.50
2009,06,27,15,51,22.60
2009,06,27,15,52,22.60
2009,06,27,15,53,22.50
2009,06,27,15,54,22.30
2009,06,27,15,55,22.00
2009,06,27,15,56,21.90
2009,06,27,15,57,21.80
2009,06,27,15,58,21.80
2009,06,27,15,59,21.90
2009,06,27,16,00,21.90
2009,06,27,16,01,21.80
2009,06,27,16,02,21.80
2009,06,27,16,03,21.80
2009,06,27,16,04,21.90
2009,06,27,16,05,21.80
2009,06,27,16,06,21.70
2009,06,27,16,07,21.60
2009,06,27,16,08,21.60
2009,06,27,16,09,21.60
2009,06,27,16,10,21.50
2009,06,27,16,11,21.50
2009,06,27,16,12,21.60
2009,06,27,16,13,21.60
2009,06,27,16,14,21.60
2009,06,27,16,15,21.60
2009,06,27,16,16,21.60
2009,06,27,16,17,21.60
2009,06,27,16,18,21.60
2009,06,27,16,19,21.70
2009,06,27,16,20,21.80
2009,06,27,16,21,21.90
2009,06,27,16,22,21.90
2009,06,27,16,23,22.00
2009,06,27,16,24,22.00
2009,06,27,16,25,22.10
2009,06,27,16,26,22.20
2009,06,27,16,27,22.20
2009,06,27,16,28,22.20
2009,06,27,16,29,22.30
2009,06,27,16,30,22.30
2009,06,27,16,31,22.30
2009,06,27,16,32,22.40
2009,06,27,16,33,22.20
2009,06,27,16,34,22.00
2009,06,27,16,35,21.90
2009,06,27,16,36,21.80
2009,06,27,16,37,21.80
2009,06,27,16,38,21.80
2009,06,27,16,39,21.80
2009,06,27,16,40,21.80
2009,06,27,16,41,21.80
2009,06,27,16,42,21.70
2009,06,27,16,43,21.60
2009,06,27,16,44,21.60
2009,06,27,16,45,21.40
2009,06,27,16,46,21.40
2009,06,27,16,47,21.40
2009,06,27,16,48,21.40
2009,06,27,16,49,21.60
2009,06,27,16,50,21.60
2009,06,27,16,51,21.60
2009,06,27,16,52,21.60
2009,06,27,16,53,21.60
2009,06,27,16,54,21.60
2009,06,27,16,55,21.60
2009,06,27,16,56,21.60
2009,06,27,16,57,21.50
2009,06,27,16,58,21.40
2009,06,27,16,59,21.40
2009,06,27,17,00,21.40
2009,06,27,17,01,21.40
2009,06,27,17,02,21.40
2009,06,27,17,03,21.40
2009,06,27,17,04,21.40
2009,06,27,17,05,21.30
2009,06,27,17,06,21.30
2009,06,27,17,07,21.30
2009,06,27,17,08,21.30
2009,06,27,17,09,21.30
2009,06,27,17,10,21.30
2009,06,27,17,11,21.30
2009,06,27,17,12,21.30
2009,06,27,17,13,21.30
2009,06,27,17,14,21.30
2009,06,27,17,15,21.30
2009,06,27,17,16,21.30
2009,06,27,17,17,21.30
2009,06,27,17,18,21.20
2009,06,27,17,19,21.10
2009,06,27,17,20,21.10
2009,06,27,17,21,21.10
2009,06,27,17,22,21.00
2009,06,27,17,23,21.00
2009,06,27,17,24,20.90
2009,06,27,17,25,20.80
2009,06,27,17,26,20.80
2009,06,27,17,27,20.80
2009,06,27,17,28,20.80
2009,06,27,17,29,20.70
2009,06,27,17,30,20.70
2009,06,27,17,31,20.70
2009,06,27,17,32,20.70
2009,06,27,17,33,20.80
2009,06,27,17,34,20.80
2009,06,27,17,35,20.90
2009,06,27,17,36,21.00